Location: Burbank
(38.7788°N, 114.0429°W)
Time: 19:41:24
(UTC+00:00)

Vanguard 2 Rocket - Pass Details

Date: 19 May 2026
Orbit: 553 x 3286 km, 32.9° (Epoch: 6 June)

Event Time Altitude Azimuth Distance (km) Brightness Sun altitude
Rises 01:19:42 0° 279° (W) 7,134 13.4 14.7°
Reaches altitude 10° 01:26:38 10° 264° (W) 6,227 12.8 13.3°
Maximum altitude 01:38:20 19° 228° (SW) 5,297 11.3 11.2°
Drops below altitude 10° 01:48:58 10° 190° (S) 5,531 10.8 9.2°
Sets 01:54:41 0° 174° (S) 6,110 10.9 8.1°
